EW8081 Weather Reports


Display with metric or nautical units.
time (UTC)temp
F
wind
direction
speed
MPH
gust
MPH
rain 1hr
in
rain 24hr
in
rain mn
in
humidity
%
barometer
mb
20260905230042 67 282 9.0 20.0 0.00 0.02 0.00 43 1014.9
20260905224540 66 336 8.0 18.0 0.00 0.02 0.00 45 1014.5
20260905223036 64 298 7.0 17.0 0.00 0.02 0.00 48 1014.3
20260905221536 63 311 8.0 19.0 0.00 0.02 0.00 50 1014.1
20260905220032 62 282 11.0 20.0 0.00 0.02 0.00 50 1014.1
20260905214529 61 291 9.0 20.0 0.00 0.02 0.00 53 1014.0
20260905213025 60 296 6.0 13.0 0.00 0.02 0.00 56 1013.6
20260905211524 58 304 5.0 11.0 0.00 0.02 0.00 58 1013.7
20260905210021 57 299 1.0 6.0 0.00 0.02 0.00 59 1013.5
20260905204620 56 278 0.0 7.0 0.00 0.02 0.00 59 1013.2
20260905203017 56 247 1.0 2.0 0.00 0.02 0.00 58 1012.9
20260905201515 56 266 1.0 8.0 0.00 0.02 0.00 56 1012.7
20260905200013 57 295 0.0 5.0 0.00 0.02 0.00 55 1012.4
20260905194511 57 267 2.0 9.0 0.00 0.02 0.00 55 1012.3
20260905193008 57 293 1.0 3.0 0.00 0.02 0.00 54 1011.6
20260905191505 59 270 3.0 11.0 0.00 0.02 0.00 51 1011.7
20260905190004 59 313 3.0 7.0 0.00 0.02 0.00 50 1011.3
20260905184600 61 291 2.0 10.0 0.00 0.02 0.00 47 1011.3
20260905183054 61 309 3.0 13.0 0.00 0.02 0.00 45 1010.7
20260905181552 61 280 1.0 6.0 0.00 0.02 0.00 48 1010.5
20260905180108 62 296 4.0 14.0 0.00 0.02 0.00 47 1009.8
20260905174545 63 324 5.0 15.0 0.00 0.02 0.00 46 1009.3
20260905173054 64 292 7.0 21.0 0.00 0.02 0.00 43 1009.4
20260905171551 65 316 12.0 25.0 0.00 0.02 0.00 43 1009.4
20260905170038 65 305 9.0 27.0 0.00 0.02 0.00 43 1009.8
20260905164536 65 333 13.0 24.0 0.00 0.02 0.00 43 1009.8
20260905163033 65 282 11.0 27.0 0.00 0.02 0.00 45 1009.7
20260905161529 65 293 5.0 12.0 0.00 0.02 0.00 54 1009.6
20260905160045 65 287 6.0 15.0 0.00 0.02 0.00 56 1009.9
20260905154525 65 296 7.0 14.0 0.00 0.02 0.00 57 1009.8
20260905153025 64 338 3.0 14.0 0.00 0.02 0.00 64 1009.4
20260905151518 65 295 2.0 6.0 0.00 0.02 0.00 64 1009.3
20260905150017 65 288 5.0 9.0 0.00 0.02 0.00 64 1009.0
20260905144524 65 291 5.0 10.0 0.00 0.02 0.00 64 1008.8
20260905143012 66 292 2.0 7.0 0.00 0.02 0.00 63 1008.5
20260905141512 67 297 2.0 7.0 0.00 0.02 0.00 61 1008.5
20260905140012 68 282 3.0 12.0 0.00 0.02 0.02 59 1008.4
20260905134504 68 267 5.0 11.0 0.00 0.02 0.02 57 1008.0
20260905133008 69 303 6.0 11.0 0.00 0.02 0.02 56 1007.8
20260905131504 68 307 4.0 9.0 0.00 0.02 0.02 59 1007.7
20260905130004 68 293 5.0 10.0 0.00 0.02 0.02 60 1007.3
20260905124503 68 348 2.0 8.0 0.00 0.02 0.02 60 1007.4
20260905123003 69 336 3.0 9.0 0.00 0.02 0.02 59 1007.3
20260905121502 69 349 3.0 10.0 0.00 0.02 0.02 59 1007.3
20260905120001 69 345 3.0 10.0 0.00 0.02 0.02 59 1007.4
20260905114501 70 338 4.0 10.0 0.00 0.02 0.02 58 1007.7
20260905113101 70 330 4.0 9.0 0.00 0.02 0.02 58 1007.9
20260905111653 71 343 6.0 11.0 0.00 0.02 0.02 56 1007.7
20260905110059 71 321 5.0 0.0 0.00 0.00 0.02 55 1007.6
20260905104559 72 336 8.0 14.0 0.00 0.02 0.02 54 1007.6
20260905103103 72 326 5.0 17.0 0.00 0.02 0.02 54 1007.5
20260905101557 72 316 8.0 17.0 0.00 0.02 0.02 53 1007.5
20260905100101 72 348 6.0 19.0 0.00 0.02 0.02 53 1007.3
20260905094556 72 341 6.0 15.0 0.00 0.02 0.02 53 1007.3
20260905093156 72 331 4.0 12.0 0.00 0.02 0.02 53 1007.0
20260905091558 72 355 4.0 13.0 0.00 0.02 0.02 53 1007.3
20260905090054 72 322 5.0 15.0 0.00 0.02 0.02 53 1007.2
20260905084557 72 342 6.0 13.0 0.00 0.02 0.02 55 1007.1
20260905083053 72 333 6.0 19.0 0.00 0.02 0.02 55 1007.9
20260905081553 71 20 9.0 16.0 0.00 0.02 0.02 57 1008.2
20260905080052 71 297 5.0 15.0 0.01 0.02 0.02 59 1009.1
20260905074551 71 314 7.0 13.0 0.01 0.02 0.02 60 1009.2
20260905073050 70 317 8.0 21.0 0.02 0.02 0.02 62 1009.1
20260905071550 71 291 13.0 24.0 0.02 0.02 0.02 63 1009.0
20260905070055 72 290 10.0 20.0 0.01 0.01 0.01 59 1007.8
20260905064608 73 274 10.0 31.0 0.01 0.01 0.01 59 1007.8
20260905063049 81 294 22.0 43.0 0.00 0.00 0.00 39 1007.3
20260905061548 83 295 7.0 12.0 0.00 0.00 0.00 32 1005.8
20260905060047 85 283 7.0 13.0 0.00 0.00 0.00 30 1005.6
20260905054550 86 309 6.0 17.0 0.00 0.00 0.00 28 1004.9
20260905053045 87 296 11.0 23.0 0.00 0.00 0.00 26 1004.7
20260905051547 87 22 14.0 27.0 0.00 0.00 0.00 26 1004.4
20260905050040 88 16 13.0 28.0 0.00 0.00 0.00 25 1004.4
20260905044537 90 29 13.0 27.0 0.00 0.00 0.00 25 1004.6
20260905043034 81 352 8.0 23.0 0.00 0.00 0.00 45 1005.1
20260905041528 79 93 5.0 9.0 0.00 0.00 0.00 54 1005.2
20260905040025 79 349 3.0 8.0 0.00 0.00 0.00 55 1005.3
20260905034529 77 57 3.0 12.0 0.00 0.00 0.00 58 1005.7
20260905033026 77 5 4.0 13.0 0.00 0.00 0.00 59 1006.1
20260905031518 75 360 5.0 13.0 0.00 0.00 0.00 61 1006.6
20260905030016 75 38 6.0 12.0 0.00 0.00 0.00 63 1007.2
20260905024512 75 66 7.0 13.0 0.00 0.00 0.00 61 1007.6
20260905023008 75 78 8.0 13.0 0.00 0.00 0.00 58 1008.5
20260905021510 74 87 6.0 13.0 0.00 0.00 0.00 58 1009.0
20260905020004 75 360 6.0 12.0 0.00 0.00 0.00 56 1009.3
20260905014601 76 329 2.0 11.0 0.00 0.00 0.00 55 1009.9
20260905013058 78 43 5.0 11.0 0.00 0.00 0.00 44 1009.9
20260905011557 79 340 4.0 11.0 0.00 0.00 0.00 41 1010.3
20260905010053 80 20 3.0 11.0 0.00 0.00 0.00 38 1010.6
20260905004549 80 10 2.0 10.0 0.00 0.00 0.00 40 1010.9
20260905003045 80 360 6.0 11.0 0.00 0.00 0.00 35 1011.6
20260905001540 77 20 6.0 13.0 0.00 0.00 0.00 38 1011.9
20260905000038 76 332 6.0 15.0 0.00 0.00 0.00 40 1012.4
20260904234533 74 360 8.0 15.0 0.00 0.00 0.00 43 1012.6
20260904233032 73 18 7.0 16.0 0.00 0.00 0.00 42 1013.0
20260904231530 71 355 9.0 20.0 0.00 0.00 0.00 44 1012.9